Regional Weather Roundup
Issued by NWS

Home | Current Version | Previous Version | Graphics & Text | Print | Product List | Glossary Off
Versions: 1 2 3 4 5 6 7 8 9 10 11 12 13 14 15 16 17 18 19 20 21 22 23 24 25 26 27 28 29 30 31 32 33 34 35 36 37 38 39 40 41 42 43 44 45 46 47 48 49 50

000
ASUS43 KOAX 221310
RWRNE

WEATHER ROUNDUP FOR NEBRASKA
NATIONAL WEATHER SERVICE OMAHA NE
700 AM CST MON DEC 22 2014

NOTES: SATELLITE DATA IS BEING USED TO AUGMENT CLOUD COVER ABOVE
       12000 FEET.
       "FAIR" INDICATES FEW OR NO CLOUDS BELOW 12,000 FEET WITH NO
       SIGNIFICANT WEATHER AND/OR OBSTRUCTIONS TO VISIBILITY.

  * THESE STATIONS DO NOT REPORT WEATHER SUCH AS RAIN...SNOW OR FOG.

NEZ001>004-019>022-054>056-221400-
NEBRASKA PANHANDLE

CITY           SKY/WX    TMP DP  RH WIND       PRES   REMARKS
SCOTTSBLUFF    MOCLDY    33  29  85 W13       29.69R WCI  24
ALLIANCE       MOCLDY    34  26  72 NW17      29.63S WCI  23
CHADRON        CLOUDY    36  27  69 W14       29.65R WCI  27
KIMBALL        MOCLDY    30  29  94 NW13      29.69R WCI  20
SIDNEY         MOCLDY    34  26  72 NW18G25   29.68R WCI  23
$$

NEZ057>060-069>072-079>082-221400-
SOUTHWEST NEBRASKA

CITY           SKY/WX    TMP DP  RH WIND       PRES   REMARKS
NORTH PLATTE   CLOUDY    35  32  88 W8        29.59R WCI  29
IMPERIAL       MOCLDY    36  27  69 NW17G25   29.64R WCI  26
LEXINGTON      MOCLDY    37  34  87 NW15      29.57R WCI  28
MCCOOK         CLOUDY    39  32  76 NW14      29.61R WCI  31
OGALLALA       MOCLDY    36  32  87 NW18G26   29.63R WCI  25
$$

NEZ005>010-023>029-035>040-094-221400-
NORTH CENTRAL NEBRASKA

CITY           SKY/WX    TMP DP  RH WIND       PRES   REMARKS
VALENTINE      CLOUDY    39  32  76 NW16G26   29.52R WCI  30
AINSWORTH      CLOUDY    37  34  90 NW14      29.51R WCI  28
BROKEN BOW     CLOUDY    40  34  79 NW23      29.53R WCI  30
O`NEILL        LGT RAIN  38  38 100 NW9       29.48R WCI  31
$$

NEZ041-046>049-061>064-073>077-083>087-221400-
SOUTH CENTRAL NEBRASKA

CITY           SKY/WX    TMP DP  RH WIND       PRES   REMARKS
GRAND ISLAND   CLOUDY    38  35  89 NW8       29.53R WCI  32
AURORA         CLOUDY    40  39  97 W10       29.51S WCI  33
HASTINGS       CLOUDY    38  34  85 NW9       29.52R WCI  31
HEBRON         RAIN      43  41  93 SW7       29.51R
HOLDREGE       MOCLDY    37  33  85 NW10      29.55R WCI  29
KEARNEY *      CLOUDY    39  34  81 W13       29.54R WCI  32
YORK           CLOUDY    41  41 100 W10       29.50S FOG
$$

NEZ011>018-030>034-042>045-221400-
NORTHEAST NEBRASKA

CITY           SKY/WX    TMP DP  RH WIND       PRES   REMARKS
NORFOLK        CLOUDY    42  39  89 SW10      29.47S
ALBION         CLOUDY    38  36  90 W6        29.49S FOG     WCI  34
BLAIR          RAIN      42  40  93 SE10      29.52S
COLUMBUS *     CLOUDY    43  39  87 SW7       29.51S
FREMONT        LGT RAIN  43  42  97 SE9       29.51F
TEKAMAH        LGT RAIN  43  41  93 SE12      29.52F FOG
WAYNE          LGT RAIN  42  41  97 S8        29.48S
$$

NEZ050>053-065>068-078-088>093-221400-
SOUTHEAST NEBRASKA

CITY           SKY/WX    TMP DP  RH WIND       PRES   REMARKS
LINCOLN        LGT RAIN  43  42  97 S8        29.53S FOG
OMAHA EPPLEY   LGT RAIN  42  41  96 SE15      29.55F FOG
BEATRICE       DRIZZLE   42  42  98 S9        29.52S
FALLS CITY     LGT RAIN  42  40  92 SE10      29.57S
NEBRASKA CITY  LGT RAIN  41  41 100 S9        29.55S
PLATTSMOUTH    DRIZZLE   41  39  95 SE14      29.54S
$$

NEZ044-045-051>053-067-221400-
OMAHA AREA

CITY           SKY/WX    TMP DP  RH WIND       PRES   REMARKS
OMAHA EPPLEY   LGT RAIN  42  41  96 SE15      29.55F FOG
BLAIR          RAIN      42  40  93 SE10      29.52S
FREMONT        LGT RAIN  43  42  97 SE9       29.51F
MILLARD        LGT RAIN  42  41  93 SE8       29.54S
OFFUTT AFB     LGT RAIN  42  40  96 SE9       29.54F FOG
PLATTSMOUTH    DRIZZLE   41  39  95 SE14      29.54S
WAHOO          LGT RAIN  42  40  92 SE8       29.52S
$$



USA.gov is the U.S. government's official web portal to all federal, state and local government web resources and services.